Temperature
25 26 26 27 27 27 27 27 27 28 29 28 27 25 24 24 23 23 23 22 20 19 18 17 17 16 16 16 15 16 15 15 15 15 15 15 15 14 14 14 14 14 14 14
26 26 27 28 28 28 28 27 27 28 28 28 27 25 25 24 24 23 23 22 20 19 18 17 16 16 16 15 15 15 15 15 15 15 14 14 14 14 14 14 14 14 14 14
26 27 28 28 27 27 28 27 27 27 28 27 26 25 24 24 24 23 23 22 21 19 18 16 16 15 15 15 15 15 15 14 14 14 14 14 14 13 13 13 13 13 13 13
27 28 28 28 27 27 27 28 28 27 27 26 27 25 24 24 24 23 23 22 21 20 18 17 16 15 15 15 14 14 14 14 14 14 14 14 13 13 13 13 13 12 12 12
27 28 28 27 28 28 27 29 28 28 27 26 25 24 24 24 23 23 22 22 21 19 18 17 16 15 15 14 14 13 13 13 13 13 13 13 13 13 13 12 12 12 12 12
28 29 29 28 29 29 28 28 27 27 26 25 25 24 23 24 24 23 22 22 20 19 18 17 16 15 15 14 13 13 13 13 13 13 13 13 13 12 12 12 12 12 11 11
27 28 29 29 28 28 28 26 24 24 24 24 25 25 23 23 25 24 23 21 20 19 18 17 16 15 14 14 13 13 13 13 13 12 12 12 12 12 12 11 11 11 11 11
25 26 27 28 28 27 27 26 23 22 22 23 25 24 24 25 25 24 22 21 20 19 18 17 16 15 14 14 13 13 13 13 12 12 12 12 12 11 11 11 11 11 11 10
25 25 27 28 29 28 27 26 26 24 23 23 24 24 24 25 24 23 22 20 19 19 18 16 15 15 14 13 13 12 12 12 12 12 12 11 11 11 11 10 10 10 10 10
25 24 26 28 29 28 28 27 26 24 23 23 23 23 23 23 23 22 21 20 19 18 17 16 15 14 14 13 13 12 12 12 12 11 11 11 11 10 10 10 10 10 10 9
26 25 25 27 26 26 26 26 26 26 25 23 22 21 22 22 22 22 21 19 18 17 16 15 15 14 13 13 12 12 12 11 11 11 11 10 10 10 10 10 9 9 9 9
26 25 24 25 27 27 27 26 26 24 23 24 23 21 22 22 22 21 20 19 17 16 15 15 14 13 13 13 12 12 11 11 11 11 10 10 10 9 9 9 9 9 9 9
26 24 23 23 24 25 26 26 26 26 24 24 22 21 22 21 21 20 19 18 16 15 14 14 13 13 13 12 12 11 11 11 11 10 10 10 9 9 9 9 9 9 9 8
25 24 23 22 23 24 24 25 26 25 24 23 22 21 21 20 20 19 18 17 16 15 14 13 13 13 12 12 11 11 11 11 10 10 10 9 9 9 9 9 8 8 8 8
25 24 24 24 25 25 25 25 26 25 25 23 22 21 21 20 19 18 17 17 16 14 14 13 13 12 12 11 11 11 10 10 10 10 9 9 9 9 9 9 8 8 8 8
24 23 23 24 25 25 25 26 25 25 25 24 23 21 21 20 19 18 17 16 15 14 13 13 12 12 12 11 11 10 10 10 10 9 9 9 9 9 9 8 8 8 8 8
24 24 23 23 24 25 24 25 25 25 25 24 22 21 20 20 18 17 16 16 15 14 13 13 12 12 11 11 10 10 10 10 9 9 9 9 9 9 8 8 8 8 8 8
24 23 23 23 23 22 23 25 25 24 24 23 22 21 20 19 17 16 16 15 14 13 13 12 12 11 11 10 10 10 10 10 9 9 9 9 9 9 8 8 8 8 8 8
24 23 22 22 22 22 23 24 25 24 22 22 21 20 19 18 17 16 15 15 14 13 12 12 11 11 11 10 10 10 9 9 9 9 9 9 9 8 8 8 8 8 8 8
24 23 22 21 20 20 22 24 24 23 21 21 20 20 19 18 18 16 15 14 13 13 12 11 11 11 10 10 10 10 9 9 9 9 9 9 8 8 8 8 8 8 8 8
23 22 22 21 21 20 21 23 23 21 20 20 20 19 18 18 17 15 14 13 13 12 11 11 11 10 10 10 9 9 9 9 9 9 9 8 8 8 8 8 8 8 8 8
23 23 22 22 20 19 22 23 21 20 20 19 19 18 17 16 15 14 13 13 12 11 11 11 10 10 10 9 9 9 9 9 9 9 9 8 8 8 8 8 8 8 8 8
23 22 22 21 20 20 21 20 20 20 19 19 18 17 16 15 14 14 13 12 11 11 11 10 10 10 9 9 9 9 9 9 9 9 9 8 8 8 8 8 8 8 8 9
23 23 22 21 21 21 21 20 20 19 19 18 17 16 16 15 14 13 12 12 11 11 11 10 10 10 9 9 9 9 9 9 9 9 9 9 9 9 9 9 9 9 9 9
23 23 22 21 21 21 20 20 19 19 18 17 17 16 15 14 14 13 12 11 11 11 10 10 10 10 9 9 9 9 9 9 9 9 9 9 9 9 9 9 9 9 9 9
23 23 22 21 21 21 20 19 19 18 18 17 16 16 15 14 13 12 12 11 11 11 10 10 10 10 9 9 9 9 9 9 9 9 9 9 9 9 9 10 10 10 10 10
Wind_Speed
12 13 13 13 14 14 13 12 10 10 10 10 9 9 10 10 9 9 11 11 11 10 11 10 9 8 8 7 7 6 5 4 3 3 2 2 2 2 2 4 5 4 5 5
12 15 13 11 11 12 13 11 9 7 8 8 8 8 10 12 14 12 11 12 13 13 12 11 10 8 7 7 7 7 6 4 3 3 2 1 2 1 2 3 3 4 4 5
15 11 12 11 11 13 14 10 9 8 8 8 7 8 9 10 11 11 12 13 13 14 13 12 10 9 8 7 7 6 6 4 3 2 2 1 1 1 2 2 2 3 3 3
12 10 9 11 12 11 11 10 10 11 9 8 11 9 9 10 11 12 12 13 13 13 14 13 11 9 8 8 7 7 6 4 3 2 2 1 2 2 2 2 2 2 3 3
10 10 11 12 12 11 10 8 9 11 11 10 9 9 7 11 13 13 11 11 11 12 13 12 11 10 9 9 7 7 6 4 3 2 2 1 2 2 2 3 2 1 2 4
11 9 10 10 10 9 8 8 11 10 10 14 13 10 7 8 11 13 13 12 11 12 13 11 11 10 9 9 7 7 6 4 3 3 3 3 3 3 3 2 2 1 2 3
12 12 10 9 10 10 10 8 6 7 8 11 10 8 6 7 8 12 13 14 13 12 12 13 13 12 11 10 8 7 7 6 5 5 4 4 3 3 3 2 3 3 3 3
7 8 10 10 10 8 10 10 7 6 7 9 10 7 6 6 7 11 11 14 13 12 12 12 12 11 10 10 9 8 8 6 5 5 4 4 3 3 3 4 4 4 4 3
4 7 9 10 10 11 11 10 10 8 11 10 7 3 5 8 11 11 11 11 12 12 11 12 12 11 10 9 9 8 8 6 5 5 4 4 4 4 4 3 3 4 3 3
6 7 9 9 8 10 10 9 6 7 8 8 6 4 2 7 9 11 12 11 10 11 11 11 11 10 10 9 8 8 7 6 6 5 4 4 3 3 3 3 4 4 4 4
6 6 8 8 8 9 9 11 9 7 7 8 6 3 2 3 5 8 11 11 11 10 10 9 9 9 10 9 8 7 6 6 5 5 5 4 3 3 3 3 3 2 2 2
5 5 6 8 8 8 9 10 8 7 8 9 6 3 3 6 5 7 10 11 12 11 10 10 9 9 9 9 8 7 6 6 5 5 5 4 3 3 3 3 2 2 2 3
3 3 4 6 6 7 8 9 9 8 7 7 7 3 4 7 7 7 10 11 11 12 11 10 10 8 8 8 7 7 6 5 5 5 5 4 3 3 3 3 3 3 4 4
3 5 6 7 7 7 8 9 8 8 6 6 5 3 5 5 7 6 8 11 12 12 11 10 9 8 8 7 7 6 6 5 6 5 5 5 4 3 3 3 3 3 3 3
3 7 8 8 8 8 9 10 8 7 6 5 2 2 5 6 8 8 7 10 12 11 11 10 9 8 8 7 6 6 6 5 5 5 5 5 4 3 3 3 3 3 3 3
4 5 7 9 9 8 8 7 6 6 5 4 1 3 6 6 8 8 7 9 11 11 10 10 9 9 8 7 6 6 6 6 5 5 5 4 4 3 3 2 2 2 2 3
5 6 7 7 8 7 6 5 5 3 4 3 0 4 6 6 7 7 6 6 9 10 9 9 9 8 7 7 6 6 6 6 5 5 4 4 3 3 2 1 2 2 3 3
5 5 4 7 8 7 2 1 2 1 1 3 6 7 6 9 9 9 6 6 8 9 9 8 7 8 7 7 6 5 6 6 5 5 4 3 2 3 2 2 2 2 2 2
5 5 5 6 7 5 3 2 1 0 2 5 6 6 7 10 11 8 7 7 8 9 9 9 8 8 7 7 7 6 6 6 5 5 4 3 2 2 2 2 2 1 1 1
7 6 5 5 5 3 1 1 2 1 2 4 6 6 7 6 4 5 8 8 10 10 9 9 8 7 7 7 6 6 6 5 5 4 4 3 2 1 2 2 1 1 1 1
8 7 8 7 4 0 3 3 1 2 2 4 6 6 6 4 4 9 10 10 10 10 10 9 8 7 7 7 6 5 6 5 4 4 4 3 2 2 2 2 1 2 1 1
5 5 5 5 2 0 3 1 3 4 5 5 7 7 8 9 11 11 11 11 10 9 10 9 8 7 6 7 7 6 5 4 4 4 3 3 3 2 2 2 1 2 2 2
1 1 1 2 2 4 6 7 6 6 6 7 8 9 10 10 10 11 10 10 10 9 9 9 9 8 7 6 6 6 5 5 4 4 3 3 2 1 1 2 3 3 3 3
2 3 2 2 4 5 6 6 7 8 8 8 9 10 10 9 10 10 10 10 9 9 9 9 9 8 7 6 6 5 5 4 4 3 3 3 3 3 2 2 2 1 1 2
1 1 2 4 5 6 5 6 8 9 9 9 9 10 10 10 10 10 10 10 9 9 8 8 8 8 8 7 6 6 5 4 3 3 3 3 3 3 3 2 1 1 1 1
1 1 2 3 4 4 7 7 9 9 9 9 8 9 10 10 10 10 9 9 9 9 8 8 9 8 8 8 7 6 5 4 4 3 4 3 3 3 4 3 3 1 3 4
Wind_Direction
210 223 223 216 215 226 240 234 223 213 192 199 193 182 165 164 179 188 166 161 149 141 135 126 121 118 118 114 114 108 104 94 96 102 117 117 110 94 91 85 63 37 16 360
214 225 228 224 226 233 244 237 228 209 199 206 207 195 180 180 188 188 176 167 156 151 143 137 134 130 132 131 122 116 111 112 111 108 104 123 127 129 111 80 79 48 23 355
223 219 211 219 223 234 244 230 228 228 206 204 209 218 208 191 197 188 185 173 166 161 153 148 144 141 141 137 134 129 120 116 104 114 117 102 105 131 106 96 81 35 8 5
231 222 207 218 229 233 242 228 225 228 224 228 226 233 212 197 194 197 192 177 171 163 154 152 150 147 143 136 131 122 120 117 108 99 93 129 124 104 75 55 68 40 12 22
230 214 211 219 222 221 239 242 240 234 233 247 244 258 234 198 197 195 192 174 162 154 152 153 154 149 140 135 130 124 125 122 117 105 96 62 72 78 74 61 50 37 34 34
246 226 221 228 226 227 244 250 251 249 242 244 239 237 242 211 199 191 184 167 156 151 152 152 146 140 135 135 135 131 127 122 115 103 83 65 62 55 53 42 18 16 46 45
230 221 219 222 230 230 232 237 240 247 245 253 248 236 214 220 199 180 167 157 153 153 156 155 147 146 145 143 143 136 128 117 102 93 79 68 64 53 49 28 24 21 38 41
244 226 217 215 222 232 229 229 235 248 263 270 261 235 188 172 137 138 144 147 150 155 151 150 147 145 145 145 143 134 124 116 109 100 88 78 63 50 48 37 28 33 31 29
238 244 234 235 227 235 233 231 241 252 262 260 255 215 142 128 130 133 137 141 148 152 146 143 143 143 141 138 132 127 124 120 113 101 93 87 73 61 53 43 34 39 22 16
218 258 252 236 232 241 252 251 250 264 278 279 270 267 187 148 145 145 145 147 143 146 145 143 142 139 133 128 120 120 121 121 117 112 103 94 82 72 65 54 47 38 17 5
240 243 252 242 231 239 239 249 259 267 272 284 279 287 67 139 145 146 145 143 137 140 140 133 131 131 126 124 120 121 125 124 118 115 107 97 91 77 70 59 43 29 1 347
249 261 252 250 260 262 246 255 261 272 278 284 281 278 63 113 118 125 132 131 134 135 130 126 131 132 130 129 129 134 134 129 126 121 113 100 89 80 70 57 33 16 1 358
281 262 254 253 246 264 254 257 269 271 272 279 279 215 100 92 96 112 130 134 136 135 130 130 133 134 133 134 134 135 133 134 133 130 121 114 99 82 72 56 36 26 16 12
275 257 251 243 240 250 254 265 269 272 275 284 276 201 145 124 118 121 132 137 139 137 137 139 139 137 134 136 136 137 135 133 131 124 119 117 106 95 78 64 42 24 14 13
257 264 267 260 252 249 257 261 262 269 282 281 265 154 157 143 134 136 139 140 138 141 145 146 144 138 135 134 135 131 126 126 122 124 124 115 109 103 86 66 47 25 4 16
215 264 271 273 263 257 266 266 261 268 279 263 198 112 121 120 125 131 139 145 144 149 148 147 145 141 139 138 135 127 130 130 125 126 121 113 111 104 90 75 62 28 13 16
230 249 262 269 269 265 262 263 257 264 297 307 5 118 124 124 125 128 131 140 146 145 144 148 146 140 138 139 137 136 140 136 130 127 123 118 111 106 100 72 65 40 33 20
246 258 265 269 268 260 263 285 260 235 78 75 100 118 133 126 117 111 125 135 145 142 141 139 137 135 135 137 138 138 138 138 138 139 132 119 115 110 101 80 71 45 31 22
220 248 265 264 261 258 236 251 242 241 74 84 111 122 124 126 123 115 125 129 138 136 133 131 135 137 139 141 142 144 142 142 146 146 142 135 119 101 92 75 54 45 24 356
203 224 247 263 269 275 329 4 20 64 136 100 122 134 134 146 157 140 134 128 125 126 129 134 139 141 142 142 146 150 152 151 151 150 146 135 123 111 83 72 38 351 320 320
205 221 240 255 256 230 307 312 316 256 121 107 114 120 128 132 91 123 131 128 125 126 135 138 140 140 142 145 150 154 155 156 152 147 142 139 143 154 124 93 352 301 298 304
222 232 238 258 258 259 352 355 46 82 100 103 105 112 110 106 112 122 126 126 128 133 140 144 143 140 143 152 158 156 155 151 145 146 151 155 168 202 132 150 234 255 260 258
217 15 22 36 107 105 67 77 97 107 103 104 114 117 114 115 123 126 128 129 133 138 142 146 147 144 146 151 157 156 153 152 149 148 153 164 171 183 191 227 238 234 239 255
142 120 129 135 138 121 105 104 102 102 106 112 117 119 120 125 130 131 133 135 141 146 148 151 152 150 148 150 150 146 149 147 149 149 158 182 193 204 218 246 272 285 307 303
141 185 148 142 143 132 117 111 111 112 114 115 120 124 128 132 135 135 137 141 145 148 150 154 153 149 149 150 150 154 154 153 158 170 195 216 210 204 212 214 267 293 15 356
72 108 172 152 143 139 128 122 123 124 122 120 123 125 127 133 137 139 142 145 148 150 152 155 154 154 155 158 160 164 163 169 174 189 211 227 222 213 215 194 187 207 210 203
Height
1491 1491 1489 1483 1481 1481 1481 1483 1484 1479 1476 1482 1489 1496 1499 1503 1507 1510 1512 1516 1520 1524 1527 1529 1532 1534 1536 1538 1540 1542 1543 1544 1546 1548 1550 1551 1551 1552 1553 1553 1553 1553 1553 1553
1488 1486 1479 1476 1475 1478 1480 1483 1482 1478 1476 1482 1488 1494 1496 1500 1502 1506 1510 1514 1518 1522 1526 1529 1531 1533 1535 1538 1539 1540 1542 1544 1546 1547 1549 1550 1551 1552 1552 1552 1552 1552 1552 1552
1484 1477 1474 1475 1478 1482 1479 1481 1483 1482 1478 1481 1490 1498 1498 1497 1500 1503 1508 1511 1515 1519 1523 1527 1530 1532 1534 1536 1538 1539 1541 1543 1545 1546 1548 1549 1550 1551 1552 1551 1551 1551 1551 1551
1476 1472 1473 1476 1478 1479 1483 1474 1477 1479 1485 1489 1488 1502 1497 1496 1498 1502 1506 1509 1513 1518 1522 1525 1528 1530 1532 1534 1537 1538 1540 1542 1544 1546 1547 1548 1549 1550 1551 1550 1550 1550 1550 1549
1473 1470 1472 1476 1475 1475 1477 1472 1475 1477 1484 1490 1490 1499 1497 1492 1497 1500 1504 1506 1511 1515 1520 1523 1527 1529 1531 1534 1536 1538 1540 1542 1543 1545 1546 1547 1549 1549 1549 1549 1549 1549 1549 1548
1469 1467 1468 1470 1470 1472 1473 1475 1477 1477 1485 1499 1490 1497 1502 1493 1491 1494 1499 1504 1509 1513 1517 1522 1525 1528 1531 1534 1536 1538 1540 1541 1543 1544 1546 1547 1547 1548 1548 1548 1548 1548 1548 1547
1473 1467 1466 1468 1472 1472 1474 1485 1499 1504 1505 1503 1485 1491 1498 1489 1484 1489 1495 1502 1507 1513 1517 1521 1524 1527 1530 1533 1536 1538 1539 1541 1542 1544 1545 1546 1547 1547 1547 1548 1547 1547 1546 1545
1482 1480 1469 1467 1471 1476 1476 1483 1503 1518 1517 1503 1487 1490 1487 1480 1483 1488 1495 1501 1507 1511 1516 1520 1524 1526 1528 1532 1535 1537 1538 1540 1542 1543 1544 1545 1546 1546 1547 1547 1546 1546 1545 1544
1483 1483 1468 1466 1466 1469 1476 1480 1480 1494 1497 1502 1493 1486 1484 1481 1486 1490 1496 1501 1506 1511 1516 1520 1524 1527 1529 1532 1535 1537 1538 1540 1541 1543 1544 1545 1545 1545 1546 1546 1546 1545 1545 1544
1475 1484 1471 1465 1466 1467 1469 1472 1481 1493 1504 1504 1497 1493 1492 1487 1489 1492 1497 1502 1507 1512 1516 1520 1524 1527 1529 1532 1534 1536 1538 1539 1541 1543 1544 1544 1545 1545 1545 1545 1545 1544 1544 1544
1470 1481 1477 1470 1473 1474 1474 1476 1476 1480 1485 1498 1506 1505 1488 1489 1489 1492 1496 1502 1508 1512 1516 1520 1524 1526 1529 1531 1533 1536 1538 1540 1541 1542 1543 1544 1545 1545 1545 1545 1544 1544 1544 1543
1470 1476 1482 1477 1469 1467 1469 1472 1475 1490 1492 1487 1496 1507 1487 1489 1491 1494 1498 1504 1509 1513 1516 1520 1524 1527 1529 1531 1533 1536 1538 1540 1541 1542 1543 1544 1544 1544 1544 1544 1544 1544 1544 1543
1473 1479 1491 1490 1483 1476 1473 1471 1472 1475 1482 1488 1497 1504 1489 1492 1495 1497 1501 1506 1510 1514 1517 1521 1524 1527 1530 1532 1534 1536 1538 1540 1541 1542 1543 1544 1544 1544 1544 1544 1544 1544 1543 1543
1475 1479 1489 1497 1490 1481 1478 1474 1472 1476 1484 1490 1491 1495 1493 1495 1498 1502 1504 1507 1511 1514 1518 1521 1525 1528 1530 1533 1535 1537 1538 1540 1541 1542 1543 1544 1544 1544 1545 1544 1544 1544 1543 1543
1476 1480 1479 1477 1474 1473 1475 1474 1472 1476 1478 1486 1489 1491 1492 1494 1498 1502 1505 1508 1511 1515 1518 1522 1525 1528 1530 1533 1535 1537 1538 1540 1541 1543 1543 1544 1544 1545 1545 1545 1544 1544 1543 1543
1476 1481 1481 1478 1472 1471 1472 1470 1471 1474 1475 1479 1484 1491 1492 1494 1498 1502 1505 1508 1511 1515 1519 1522 1525 1528 1530 1533 1535 1537 1538 1540 1541 1543 1544 1545 1545 1545 1545 1545 1544 1544 1544 1543
1474 1479 1484 1485 1474 1473 1479 1472 1472 1474 1474 1477 1485 1491 1492 1495 1499 1503 1505 1509 1512 1515 1519 1522 1525 1527 1530 1533 1535 1537 1538 1540 1542 1543 1544 1545 1545 1545 1545 1545 1545 1544 1544 1543
1476 1479 1482 1484 1482 1493 1480 1469 1470 1474 1477 1480 1484 1490 1493 1498 1501 1504 1508 1509 1513 1516 1519 1522 1525 1527 1530 1533 1535 1537 1538 1540 1542 1543 1544 1545 1546 1546 1546 1546 1546 1545 1544 1544
1473 1479 1484 1486 1489 1485 1478 1472 1471 1476 1482 1484 1487 1492 1496 1500 1503 1508 1510 1512 1514 1517 1519 1521 1525 1527 1530 1532 1534 1536 1538 1540 1542 1543 1544 1545 1546 1546 1547 1547 1546 1546 1545 1545
1472 1476 1484 1487 1494 1497 1484 1474 1474 1478 1488 1488 1490 1493 1496 1499 1501 1508 1510 1513 1515 1517 1520 1522 1525 1528 1530 1532 1534 1536 1538 1540 1542 1543 1544 1545 1546 1547 1547 1547 1547 1547 1546 1546
1475 1477 1482 1485 1490 1490 1482 1477 1478 1489 1494 1490 1491 1494 1497 1499 1502 1507 1509 1513 1515 1518 1521 1523 1526 1528 1530 1532 1534 1536 1538 1540 1542 1543 1544 1546 1546 1547 1548 1548 1548 1547 1547 1546
1473 1477 1480 1481 1489 1496 1481 1479 1484 1490 1489 1491 1494 1497 1500 1502 1505 1508 1511 1513 1517 1519 1522 1524 1527 1529 1531 1533 1534 1537 1539 1540 1542 1543 1545 1546 1546 1547 1548 1548 1548 1548 1547 1547
1469 1473 1476 1482 1488 1485 1484 1485 1488 1489 1491 1494 1496 1499 1502 1504 1507 1510 1512 1515 1517 1520 1522 1525 1527 1529 1531 1533 1535 1537 1539 1540 1542 1543 1545 1546 1547 1547 1548 1548 1548 1548 1547 1547
1469 1470 1475 1480 1482 1484 1486 1488 1489 1491 1494 1496 1499 1501 1504 1506 1509 1511 1514 1516 1519 1521 1523 1525 1527 1530 1532 1534 1536 1537 1539 1541 1542 1544 1545 1546 1547 1547 1547 1548 1548 1548 1547 1547
1469 1469 1473 1479 1482 1484 1487 1489 1491 1493 1496 1498 1501 1502 1505 1508 1511 1513 1515 1517 1519 1522 1524 1526 1528 1530 1532 1534 1536 1538 1539 1541 1542 1544 1545 1546 1547 1547 1547 1547 1547 1547 1546 1546
1468 1471 1475 1479 1481 1483 1488 1491 1493 1495 1497 1499 1502 1504 1507 1509 1511 1513 1516 1518 1520 1522 1524 1526 1528 1531 1533 1535 1536 1538 1540 1541 1542 1544 1545 1546 1547 1547 1547 1547 1547 1546 1546 1545